Weather in Irdyn

Ukraine / Cherkassi District     49°22′08″N   31°40′34″E
temp.,
°C
wind,
m/s
gust,
m/s
humid.,
%
clouds,
%
prec.,
mm/h
press.,
hPa
HPBL,
m
28 june, tue
tue2800:00+18ne22730 0.0 101913
03:00+16nne22840 0.0 101916
06:00+16nne23830 0.0 101952
09:00+24ene47552 0.0 1018634
12:00+29ene46475 0.0 10181495
15:00+32ene46400 0.0 10162324
18:00+32ene47395 0.0 10161895
21:00+25ene335948 0.1 101643
29 june, wed
wed2900:00+22ne227938 0.4 101711
03:00+20ne22916 0.7 101725
06:00+21ne2287100 0.0 101848
09:00+26ene336389 0.0 1018503
12:00+30e45415 0.0 10171836
15:00+31e433695 0.0 10162268
18:00+30ese4437100 0.0 10152015
21:00+24nw4763100 0.0 1016192
30 june, thu
thu3000:00+18ne3891100 1.2 1017217
03:00+18se279476 2.5 1016180
06:00+18ene129092 0.8 1016111
09:00+22e336959 1.1 1016492
12:00+25e54535 0.1 10161138
15:00+26e65496 0.1 10171323
18:00+23ene66570 0.0 1017990
21:00+18e35780 0.0 101891
1 july, fri
fri100:00+16ene22860 0.0 101915
03:00+16ne22920 0.0 101918
06:00+16ene24880 0.0 1020117
09:00+23ene34540 0.0 1020704
12:00+26ene54400 0.0 10201774
15:00+27ene54320 0.0 10191802
18:00+27e44360 0.0 10191834
21:00+21ese22575 0.0 102019
2 july, sat
sat200:00+18ese11676 0.0 102111
03:00+16e127847 0.0 102111
06:00+17e11805 0.0 102117
09:00+24e33485 0.0 1021660
12:00+28ese43343 0.0 10211963
15:00+29ese42290 0.0 10202273
18:00+28e64330 0.0 10201321
21:00+21ese4650100 0.0 101979